Date,TemperatureHighF,TemperatureAvgF,TemperatureLowF,DewpointHighF,DewpointAvgF,DewpointLowF,HumidityHigh,HumidityAvg,HumidityLow,PressureMaxIn,PressureMinIn,WindSpeedMaxMPH,WindSpeedAvgMPH,GustSpeedMaxMPH,PrecipitationSumIn
2013-3-1,74.8,55.0,40.4,54.5,47.7,39.4,97,80,45,30.45,30.25,3,0,8,0.00
2013-3-2,70.3,57.2,45.3,54.9,50.0,44.0,96,78,54,30.27,30.08,4,0,8,0.00
2013-3-3,66.1,53.6,39.3,51.1,45.8,37.7,94,77,48,30.11,30.02,6,1,16,0.00
2013-3-4,61.1,46.4,37.4,49.7,42.3,34.5,96,86,64,30.18,30.07,5,1,12,0.00
2013-3-5,55.5,45.2,33.3,46.2,40.1,32.0,96,83,64,30.10,29.84,8,2,19,0.17
2013-3-6,55.0,47.6,34.6,46.3,41.0,32.8,94,79,55,30.09,29.84,6,2,18,0.23
2013-3-7,55.6,45.1,33.3,43.1,37.2,31.8,96,76,53,30.03,29.89,3,0,7,0.00
2013-3-8,62.2,49.3,38.9,47.5,39.0,34.4,84,69,41,30.06,29.87,9,3,17,0.00
2013-3-9,70.7,52.3,34.1,44.1,38.3,29.1,95,64,22,30.32,30.06,8,2,16,0.00
2013-3-10,74.0,52.4,35.5,49.5,37.4,26.4,92,62,20,30.38,30.26,3,1,8,0.00
2013-3-11,74.9,51.4,34.5,49.7,39.4,31.3,92,67,31,30.29,30.11,4,0,8,0.00
2013-3-12,78.9,54.5,37.6,56.9,45.9,36.1,96,76,41,30.19,30.08,4,1,9,0.00
2013-3-13,81.0,57.3,39.8,56.9,48.3,38.5,97,76,41,30.19,30.07,4,0,8,0.00
2013-3-14,74.0,57.0,44.1,57.6,48.0,39.4,97,76,29,30.18,30.10,6,1,13,0.00
2013-3-15,66.6,47.3,40.5,51.4,42.4,38.4,94,84,57,30.16,30.12,3,0,7,0.00
2013-3-18,70.5,61.6,50.2,48.6,45.1,42.1,77,56,38,30.14,30.03,5,1,11,0.00
2013-3-19,64.2,51.4,41.1,47.9,43.2,38.0,94,76,43,30.16,30.08,5,1,12,0.06
2013-3-20,59.1,50.9,45.4,55.3,48.7,43.2,96,92,82,30.16,30.09,4,0,12,0.49
2013-3-21,66.3,50.9,36.1,47.0,42.3,34.5,96,75,46,30.15,30.02,6,2,14,0.01
2013-3-22,69.6,53.8,36.5,41.3,29.6,12.9,91,47,14,30.14,30.05,9,2,22,0.00
2013-3-23,46.3,39.7,37.7,35.6,34.0,31.9,86,80,57,30.11,30.11,3,0,10,0.00
2013-3-24,72.9,53.1,36.1,50.3,42.1,34.2,94,70,33,30.12,29.97,4,1,9,0.00
2013-3-25,63.3,47.6,34.9,48.1,41.2,33.6,97,80,43,30.05,29.95,6,1,14,0.00
2013-3-26,70.0,52.1,39.0,51.2,43.6,37.2,96,76,43,30.03,29.94,5,1,12,0.00
2013-3-27,61.9,51.7,42.5,52.7,46.5,39.8,94,83,67,30.04,29.97,4,1,10,0.00
2013-3-28,67.7,55.0,47.5,53.9,49.4,45.5,95,82,58,30.11,30.03,2,0,7,0.00
2013-3-29,77.8,58.4,41.9,57.1,49.9,40.8,97,77,40,30.12,30.02,4,1,11,0.00
2013-3-30,68.4,58.1,50.3,56.3,51.5,47.9,93,79,58,30.08,30.00,5,1,12,0.11
2013-3-31,65.0,55.9,48.9,56.4,51.9,47.6,97,87,66,30.10,30.01,4,1,12,0.17